When you browse on this site, cookies collect data to enhance your experience and personalize the content and advertising you see.
Visit our Privacy Policy to learn more. By continuing to use the site, you agree to this use of cookies and data.
  • In Czech Republic
  • List of Countries
  • For 7 days
  • Water Temperature
  • Satellite Maps
  • Weather Map
  • Weather Widgets
  • user-avatar
    Login

    Hourly Weather Belfast

    Today, 17 January, Thursday

    Time Temperature Precipitation Wind Pressure Humidity
    00:00 +1°C° 0 mm 8 mps 753 mmHg 71%
    01:00 0°C° 0 mm 8 mps 754 mmHg 68%
    02:00 0°C° 0 mm 8 mps 755 mmHg 65%
    03:00 0°C° 0 mm 7 mps 756 mmHg 62%
    04:00 0°C° 0 mm 7 mps 756 mmHg 63%
    05:00 0°C° 0 mm 7 mps 757 mmHg 63%
    06:00 +1°C° 0 mm 6 mps 758 mmHg 64%
    07:00 +1°C° 0 mm 5 mps 758 mmHg 64%
    08:00 +1°C° 0 mm 5 mps 759 mmHg 64%
    09:00 +1°C° 0 mm 4 mps 760 mmHg 65%
    10:00 +1°C° 0 mm 4 mps 760 mmHg 64%
    11:00 +3°C° 0 mm 3 mps 761 mmHg 62%
    12:00 +4°C° 0 mm 3 mps 761 mmHg 61%
    13:00 +4°C° 0 mm 3 mps 761 mmHg 63%
    14:00 +5°C° 0 mm 2 mps 761 mmHg 65%
    15:00 +4°C° 0 mm 2 mps 761 mmHg 67%
    16:00 +5°C° 0 mm 1 mps 761 mmHg 70%
    17:00 +4°C° 0 mm 1 mps 761 mmHg 74%
    18:00 +3°C° 0 mm 1 mps 761 mmHg 77%
    19:00 +2°C° 0 mm 2 mps 761 mmHg 77%
    20:00 +2°C° 0 mm 2 mps 761 mmHg 78%
    21:00 +2°C° 0 mm 2 mps 761 mmHg 78%
    22:00 +1°C° 0 mm 3 mps 760 mmHg 76%
    23:00 +1°C° 0 mm 3 mps 760 mmHg 73%

    Tomorrow, 18 January, Friday

    Time Temperature Precipitation Wind Pressure Humidity
    00:00 +1°C° 0 mm 4 mps 759 mmHg 71%
    01:00 +1°C° 0 mm 4 mps 759 mmHg 71%
    02:00 +1°C° 0 mm 5 mps 758 mmHg 72%
    03:00 +1°C° 0 mm 5 mps 757 mmHg 72%
    04:00 +2°C° 0.5 mm 5 mps 757 mmHg 77%
    05:00 +2°C° 0.5 mm 6 mps 756 mmHg 81%
    06:00 +2°C° 0.5 mm 6 mps 755 mmHg 85%
    07:00 +2°C° 0.8 mm 6 mps 755 mmHg 87%
    08:00 +3°C° 0.8 mm 7 mps 754 mmHg 88%
    09:00 +3°C° 0.8 mm 7 mps 754 mmHg 89%
    10:00 +3°C° 1.4 mm 7 mps 753 mmHg 90%
    11:00 +4°C° 1.4 mm 7 mps 753 mmHg 91%
    12:00 +4°C° 1.4 mm 7 mps 753 mmHg 92%
    13:00 +4°C° 1.7 mm 7 mps 752 mmHg 93%
    14:00 +4°C° 1.7 mm 7 mps 752 mmHg 94%
    15:00 +4°C° 1.7 mm 8 mps 751 mmHg 94%
    16:00 +4°C° 0.5 mm 6 mps 751 mmHg 94%
    17:00 +5°C° 0.5 mm 5 mps 751 mmHg 94%
    18:00 +5°C° 0.5 mm 4 mps 751 mmHg 94%
    19:00 +5°C° 0.2 mm 3 mps 751 mmHg 95%
    20:00 +5°C° 0.2 mm 3 mps 750 mmHg 95%
    21:00 +4°C° 0.2 mm 3 mps 750 mmHg 96%
    22:00 +4°C° 0.2 mm 3 mps 750 mmHg 95%
    23:00 +4°C° 0.2 mm 3 mps 750 mmHg 95%

    Day after tomorrow, 19 January, Saturday

    Time Temperature Precipitation Wind Pressure Humidity
    00:00 +3°C° 0.2 mm 3 mps 750 mmHg 94%
    01:00 +3°C° 0 mm 3 mps 750 mmHg 94%
    02:00 +3°C° 0 mm 3 mps 750 mmHg 95%
    03:00 +3°C° 0 mm 3 mps 749 mmHg 95%
    04:00 +3°C° 0.1 mm 3 mps 749 mmHg 95%
    05:00 +3°C° 0.1 mm 3 mps 749 mmHg 96%
    06:00 +4°C° 0.1 mm 3 mps 749 mmHg 96%
    07:00 +4°C° 0.2 mm 3 mps 749 mmHg 96%
    08:00 +4°C° 0.2 mm 3 mps 750 mmHg 96%
    09:00 +4°C° 0.2 mm 3 mps 750 mmHg 97%
    10:00 +4°C° 0.3 mm 3 mps 750 mmHg 96%
    11:00 +5°C° 0.3 mm 3 mps 750 mmHg 95%
    12:00 +5°C° 0.3 mm 3 mps 751 mmHg 94%
    13:00 +7°C° 0.1 mm 3 mps 751 mmHg 93%
    14:00 +7°C° 0.1 mm 3 mps 751 mmHg 92%
    15:00 +8°C° 0.1 mm 3 mps 751 mmHg 92%
    16:00 +7°C° 0 mm 3 mps 751 mmHg 92%
    17:00 +5°C° 0 mm 3 mps 751 mmHg 93%
    18:00 +5°C° 0 mm 3 mps 752 mmHg 94%
    19:00 +5°C° 0 mm 4 mps 752 mmHg 94%
    20:00 +5°C° 0 mm 4 mps 753 mmHg 95%
    21:00 +5°C° 0 mm 5 mps 753 mmHg 95%
    22:00 +4°C° 0.2 mm 6 mps 754 mmHg 92%
    23:00 +4°C° 0.2 mm 8 mps 755 mmHg 90%

    20 January, Sunday

    Time Temperature Precipitation Wind Pressure Humidity
    00:00 +3°C° 0.2 mm 10 mps 756 mmHg 87%
    01:00 +3°C° 0.1 mm 9 mps 756 mmHg 86%
    02:00 +2°C° 0.1 mm 9 mps 757 mmHg 84%
    03:00 +1°C° 0.1 mm 8 mps 758 mmHg 83%
    04:00 +1°C° 0 mm 8 mps 758 mmHg 82%
    05:00 +1°C° 0 mm 8 mps 759 mmHg 81%
    06:00 0°C° 0 mm 7 mps 760 mmHg 80%
    07:00 0°C° 0 mm 7 mps 761 mmHg 79%
    08:00 +1°C° 0 mm 6 mps 762 mmHg 78%
    09:00 +1°C° 0 mm 6 mps 763 mmHg 78%
    10:00 +2°C° 0 mm 6 mps 763 mmHg 76%
    11:00 +3°C° 0 mm 6 mps 764 mmHg 74%
    12:00 +3°C° 0 mm 6 mps 764 mmHg 71%
    13:00 +3°C° 0 mm 6 mps 765 mmHg 71%
    14:00 +3°C° 0 mm 6 mps 765 mmHg 71%
    15:00 +3°C° 0 mm 6 mps 765 mmHg 71%
    16:00 +2°C° 0 mm 6 mps 766 mmHg 72%
    17:00 +2°C° 0 mm 5 mps 766 mmHg 74%
    18:00 +1°C° 0 mm 5 mps 767 mmHg 76%
    19:00 +1°C° 0 mm 5 mps 767 mmHg 78%
    20:00 0°C° 0 mm 4 mps 767 mmHg 80%
    21:00 0°C° 0 mm 4 mps 768 mmHg 82%
    22:00 0°C° 0 mm 4 mps 768 mmHg 83%
    23:00 -1°C° 0 mm 4 mps 768 mmHg 84%

    21 January, Monday

    Time Temperature Precipitation Wind Pressure Humidity
    00:00 0°C° 0 mm 3 mps 768 mmHg 85%
    01:00 0°C° 0 mm 3 mps 767 mmHg 84%
    02:00 0°C° 0 mm 3 mps 767 mmHg 84%
    03:00 0°C° 0 mm 3 mps 767 mmHg 83%
    04:00 -1°C° 0 mm 4 mps 766 mmHg 84%
    05:00 -1°C° 0 mm 4 mps 765 mmHg 85%
    06:00 -1°C° 0 mm 4 mps 764 mmHg 86%
    07:00 -1°C° 0 mm 4 mps 763 mmHg 85%
    08:00 0°C° 0 mm 5 mps 763 mmHg 85%
    09:00 +1°C° 0 mm 5 mps 762 mmHg 84%
    10:00 +1°C° 0.1 mm 6 mps 760 mmHg 81%
    11:00 +2°C° 0.1 mm 7 mps 759 mmHg 78%
    12:00 +2°C° 0.1 mm 8 mps 758 mmHg 75%
    13:00 +2°C° 0.4 mm 8 mps 755 mmHg 78%
    14:00 +2°C° 0.4 mm 9 mps 753 mmHg 81%
    15:00 +2°C° 0.4 mm 9 mps 751 mmHg 83%
    16:00 +2°C° 1.5 mm 9 mps 749 mmHg 85%
    17:00 +3°C° 1.5 mm 10 mps 748 mmHg 87%
    18:00 +3°C° 1.5 mm 10 mps 746 mmHg 89%
    19:00 +2°C° 0.4 mm 9 mps 746 mmHg 87%
    20:00 +1°C° 0.4 mm 9 mps 746 mmHg 85%
    21:00 0°C° 0.4 mm 9 mps 746 mmHg 83%
    22:00 0°C° 0.3 mm 9 mps 746 mmHg 82%
    23:00 +1°C° 0.3 mm 8 mps 746 mmHg 82%

    22 January, Tuesday

    Time Temperature Precipitation Wind Pressure Humidity
    00:00 +1°C° 0.3 mm 8 mps 746 mmHg 82%
    01:00 +1°C° 0.2 mm 8 mps 746 mmHg 81%
    02:00 +1°C° 0.2 mm 9 mps 746 mmHg 80%
    03:00 +1°C° 0.2 mm 9 mps 746 mmHg 80%
    04:00 +1°C° 0.1 mm 9 mps 746 mmHg 79%
    05:00 +1°C° 0.1 mm 9 mps 746 mmHg 79%
    06:00 +1°C° 0.1 mm 9 mps 746 mmHg 78%
    07:00 +1°C° 0.1 mm 9 mps 747 mmHg 78%
    08:00 +1°C° 0.1 mm 9 mps 747 mmHg 78%
    09:00 +1°C° 0.1 mm 9 mps 747 mmHg 78%
    10:00 +1°C° 0 mm 9 mps 748 mmHg 77%
    11:00 +1°C° 0 mm 9 mps 748 mmHg 75%
    12:00 +2°C° 0 mm 9 mps 748 mmHg 74%
    13:00 +2°C° 0 mm 8 mps 748 mmHg 72%
    14:00 +1°C° 0 mm 8 mps 748 mmHg 71%
    15:00 +2°C° 0 mm 7 mps 748 mmHg 69%
    16:00 +2°C° 0 mm 7 mps 748 mmHg 70%
    17:00 +1°C° 0 mm 6 mps 748 mmHg 72%
    18:00 +1°C° 0 mm 5 mps 749 mmHg 73%
    19:00 +1°C° 0 mm 5 mps 749 mmHg 76%
    20:00 0°C° 0 mm 5 mps 749 mmHg 79%
    21:00 0°C° 0 mm 5 mps 749 mmHg 82%
    22:00 0°C° 0 mm 4 mps 750 mmHg 86%
    23:00 +1°C° 0 mm 3 mps 750 mmHg 89%
    Show more